Whitefield, NH

9:44 AM EST on December 15, 2017 (GMT -0500)
Mount Washington Regional

Weather History for KHIE - November, 2013

Change the Weather History Date:

Saturday, November 16, 2013

  Actual Average Record
Temperature  
Mean Temperature 40 °F -  
Max Temperature 55 °F 39 °F 66 °F (2005)
Min Temperature 25 °F 22 °F 0 °F (1996)
Degree Days  
Heating Degree Days 24    
Moisture  
Dew Point 23 °F    
Average Humidity 67    
Maximum Humidity 85    
Minimum Humidity 25    
Precipitation  
Precipitation 0.00 in - - ()
Sea Level Pressure  
Sea Level Pressure 30.28 in    
Wind  
Wind Speed 1 mph (WNW)    
Max Wind Speed 10 mph    
Max Gust Speed -    
Visibility 10 miles    
Events      
Averages and records for this station are not official NWS values.
T = Trace of Precipitation, MM = Missing Value Source: NWS Daily Summary

Daily Weather History Graph

Daily Weather History Graph

Search for Another Location

Airport or City:

Trip Planner

Search our weather history database for the weather conditions in past years. The results will help you decide how hot, cold, wet, or windy it might be!

Date:

Astronomy

Nov. 16, 2013 Rise Set
Actual Time 6:43 AM EST 4:17 PM EST
Civil Twilight 6:12 AM EST 4:49 PM EST
Nautical Twilight 5:36 AM EST 5:24 PM EST
Astronomical Twilight 5:02 AM EST 5:58 PM EST
Moon 3:52 PM EST (11/16) 5:34 AM EST (11/16)
Length of Visible Light 10h 37m
Length of Day
9h 34m
Waxing Gibbous, 99% of the Moon is Illuminated
Nov 16
Waxing Gibbous
Nov 17
Full
Nov 25
Last Quarter
Dec 2
New
Dec 9
First Quarter

Hourly Weather History & Observations

Time (EST) Temp. Windchill Dew Point Humidity Pressure Visibility Wind Dir Wind Speed Gust Speed Precip Events Conditions
12:52 AM 26.1 °F - 21.0 °F 81% 30.20 in 10.0 mi Calm Calm - N/A   Clear
1:52 AM 26.1 °F - 21.9 °F 84% 30.21 in 10.0 mi Calm Calm - N/A   Clear
2:52 AM 27.0 °F - 23.0 °F 85% 30.21 in 10.0 mi Calm Calm - N/A   Clear
3:52 AM 28.0 °F - 24.1 °F 85% 30.23 in 10.0 mi Calm Calm - N/A   Clear
4:52 AM 28.0 °F - 24.1 °F 85% 30.26 in 10.0 mi Calm Calm - N/A   Clear
5:52 AM 28.9 °F - 25.0 °F 85% 30.29 in 10.0 mi Calm Calm - N/A   Scattered Clouds
6:52 AM 30.0 °F - 25.0 °F 82% 30.30 in 10.0 mi Calm Calm - N/A   Overcast
7:52 AM 30.9 °F - 26.1 °F 82% 30.29 in 10.0 mi Calm Calm - N/A   Overcast
8:52 AM 34.0 °F - 28.0 °F 79% 30.29 in 10.0 mi Calm Calm - N/A   Overcast
9:52 AM 42.1 °F 40.2 °F 25.0 °F 51% 30.31 in 10.0 mi West 3.5 mph - N/A   Clear
10:52 AM 48.0 °F - 24.1 °F 39% 30.31 in 10.0 mi Calm Calm - N/A   Clear
11:52 AM 53.1 °F - 21.9 °F 30% 30.29 in 10.0 mi NNW 3.5 mph - N/A   Clear
12:52 PM 54.0 °F - 21.9 °F 29% 30.28 in 10.0 mi West 10.4 mph - N/A   Clear
1:52 PM 55.9 °F - 19.9 °F 25% 30.27 in 10.0 mi West 4.6 mph - N/A   Clear
2:52 PM 55.0 °F - 19.9 °F 25% 30.27 in 10.0 mi Variable 3.5 mph - N/A   Clear
3:52 PM 45.0 °F - 26.1 °F 48% 30.28 in 10.0 mi Calm Calm - N/A   Clear
4:52 PM 36.0 °F - 24.1 °F 62% 30.30 in 10.0 mi Calm Calm - N/A   Clear
5:52 PM 32.0 °F - 23.0 °F 69% 30.32 in 10.0 mi Calm Calm - N/A   Clear
6:52 PM 28.9 °F - 21.9 °F 75% 30.32 in 10.0 mi Calm Calm - N/A   Clear
7:52 PM 28.0 °F - 21.9 °F 78% 30.33 in 10.0 mi Calm Calm - N/A   Clear
8:52 PM 26.1 °F - 21.0 °F 81% 30.32 in 10.0 mi Calm Calm - N/A   Clear
9:52 PM 26.1 °F - 21.0 °F 81% 30.31 in 10.0 mi Calm Calm - N/A   Clear
10:52 PM 26.1 °F - 21.9 °F 84% 30.32 in 10.0 mi Calm Calm - N/A   Clear
11:52 PM 25.0 °F - 19.9 °F 81% 30.32 in 10.0 mi Calm Calm - N/A   Clear